[Iaude] MPEC O75: 2024 NC4 [a=2.77,e=0.53,i=8.7,H=22.0]
    mpec at cfa.harvard.edu 
    mpec at cfa.harvard.edu
       
    Sun Jul 28 21:18:25 EDT 2024
    
    
  
M.P.E.C. 2024-O75                                 Issued 2024 July 29, 01:16 UT
     The Minor Planet Electronic Circulars contain information on unusual
         minor planets, routine data on comets and natural satellites,
         and occasional editorial announcements.  They are published
    on behalf of Division F of the International Astronomical Union by the
          Minor Planet Center, Smithsonian Astrophysical Observatory,
                          Cambridge, MA 02138, U.S.A.
			  
             Prepared using the Tamkin Foundation Computer Network
                              MPC at CFA.HARVARD.EDU
            URL https://www.minorplanetcenter.net/    ISSN 1523-6714
                                    2024 NC4                                    
Observations:
     K24N04C  C2024 07 06.47349820 57 27.850-29 04 11.04         22.66GVEO075F52
     K24N04C  C2024 07 06.48333320 57 27.911-29 04 07.96         22.51GVEO075F52
     K24N04C  C2024 07 06.49317020 57 27.944-29 04 04.29         21.68GVEO075F52
     K24N04C  C2024 07 06.50300620 57 28.022-29 04 01.50         22.13GVEO075F52
     K24N04C  C2024 07 06.50575220 57 28.037-29 04 00.25         22.31GVEO075F52
     K24N04C* C2024 07 06.51690320 57 28.109-29 03 56.80         22.95wXEO075F52
     K24N04C  C2024 07 06.52806420 57 28.180-29 03 52.86         22.57wXEO075F52
     K24N04C  C2024 07 06.53922520 57 28.231-29 03 49.04         22.25wXEO075F52
     K24N04C 3C2024 07 11.59881020 58 04.051-28 32 16.22         22.94GVEO075T14
     K24N04C 3C2024 07 11.59978920 58 04.044-28 32 15.97         22.87GVEO075T14
     K24N04C 3C2024 07 16.53550720 57 49.102-27 54 17.12         22.61GVEO075T14
     K24N04C 3C2024 07 16.53671620 57 49.087-27 54 16.43         22.54GVEO075T14
     K24N04C 3C2024 07 16.53802720 57 49.071-27 54 15.79         22.40GVEO075T14
     K24N04C 7C2024 07 26.00625620 55 13.800-26 15 43.29         20.2 GVEO075Z84
     K24N04C 7C2024 07 26.05419020 55 12.253-26 15 07.41         20.6 GVEO075Z84
Observer details:
F52 Pan-STARRS 2, Haleakala.  Observers J. Herman, T. Lowe, P. Minguez, A.
    Schultz, I. Smith.  Measurers K. Chambers, T. de Boer, J. Fairlamb, H.
    Gao, M. Huber, C.-C. Lin, E. Magnier, Y. Ramanjooloo, R. Wainscoat, R.
    Weryk.  1.8-m Ritchey-Chretien + CCD.
T14 Canada-France-Hawaii Telescope, Maunakea.  Observers R. Wainscoat, L.
    Wells, V. Khatu, J. Silva, H. Flewelling.  Measurers R. Weryk, R.
    Wainscoat.  3.6-m f/4.1 reflector + CCD.
Z84 Calar Alto-Schmidt.  Observers F. Ocana, R. Kresken, M. Micheli, L.
    Conversi.  Measurers F. Ocana, M. Micheli.  0.8-m f/3 Schmidt + CCD.
Orbital elements:
2024 NC4                                                 Earth MOID = 0.2976 AU
Epoch 2024 Oct. 17.0 TT = JDT 2460600.5                 Veres                   
M   4.00423              (2000.0)            P               Q                  
n   0.21328000     Peri.   31.05191     +0.99018033     +0.10538966             
a   2.7744014      Node   322.55396     -0.13748363     +0.85313559             
e   0.5339683      Incl.    8.68843     +0.02532113     +0.51093314             
P   4.62           H   22.02          G   0.15           U   7                  
Residuals in seconds of arc
240706 F52  0.1+  0.1-    240706 F52  0.1+  0.1-    240716 T14  0.0   0.0
240706 F52  0.1+  0.2-    240706 F52  0.1+  0.1+    240716 T14  0.1+  0.0
240706 F52  0.3-  0.3+    240706 F52  0.1-  0.1+    240716 T14  0.1+  0.0
240706 F52  0.0   0.2-    240711 T14  0.1-  0.1+    240726 Z84  0.3+  0.0
240706 F52  0.0   0.2+    240711 T14  0.2-  0.1-    240726 Z84  0.3-  0.0
Ephemeris:
2024 NC4                 a,e,i = 2.77, 0.53, 9                   q = 1.2930
Date    TT    R. A. (2000) Decl.     Delta      r    Elong.  Phase     V
2024 06 29    20 54 54.4 -29 40 05   0.6622  1.6150   147.6    19.7    23.2
...
2024 07 14    20 58 03.4 -28 14 36   0.5350  1.5299   159.9    13.2    22.4
...
2024 07 22    20 56 38.2 -27 01 46   0.4807  1.4878   166.6     9.1    21.9
...
2024 07 28    20 54 22.7 -25 49 38   0.4463  1.4580   171.1     6.2    21.6
2024 07 29    20 53 55.2 -25 35 57   0.4411  1.4532   171.7     5.8    21.5
2024 07 30    20 53 26.6 -25 21 47   0.4361  1.4485   172.2     5.4    21.5
...
2024 08 05    20 50 17.8 -23 45 53   0.4090  1.4212   172.8     5.1    21.3
...
2024 08 13    20 46 01.1 -21 08 15   0.3816  1.3881   167.5     9.1    21.3
...
2024 08 28    20 41 50.8 -14 53 40   0.3547  1.3378   153.9    19.4    21.4
M. P. C. Staff               (C) Copyright 2024 MPC           M.P.E.C. 2024-O75
    
    
More information about the Iaude
mailing list